Date,TemperatureHighF,TemperatureAvgF,TemperatureLowF,DewpointHighF,DewpointAvgF,DewpointLowF,HumidityHigh,HumidityAvg,HumidityLow,PressureMaxIn,PressureMinIn,WindSpeedMaxMPH,WindSpeedAvgMPH,GustSpeedMaxMPH,PrecipitationSumIn
2013-1-1,26.0,18.7,7.9,24.0,11.6,-1.0,92,74,64,29.86,29.67,18,5,35,0.00
2013-1-2,16.5,9.2,-4.0,12.0,3.3,-9.0,85,77,62,30.11,29.85,20,3,23,0.00
2013-1-3,18.0,9.6,-4.2,15.0,-0.7,-12.0,89,65,30,30.13,29.97,18,3,32,0.01
2013-1-4,26.9,23.6,17.9,20.0,18.4,15.0,90,81,73,29.95,29.77,23,5,39,0.01
2013-1-5,29.4,24.2,17.4,21.0,17.5,13.0,88,76,58,30.20,29.79,19,3,33,0.00
2013-1-6,30.2,25.9,17.2,26.0,21.8,14.0,91,84,80,30.14,29.90,14,3,27,0.02
2013-1-7,29.6,23.1,14.9,27.0,17.5,12.0,90,80,55,30.33,29.94,10,2,25,0.01
2013-1-8,35.3,31.1,25.5,20.0,18.7,17.0,77,61,49,30.33,30.21,26,4,30,0.00
2013-1-9,39.5,31.6,21.3,32.0,22.8,16.0,83,70,52,30.32,29.96,26,3,41,0.00
2013-1-10,34.3,30.5,25.2,28.0,21.3,19.0,81,69,59,30.50,30.01,14,5,36,0.01
2013-1-11,31.4,27.1,20.5,31.0,22.1,15.0,97,82,66,30.48,30.14,10,2,18,0.14
2013-1-12,40.3,34.7,31.3,40.0,34.0,31.0,98,97,96,30.15,30.08,8,0,9,0.00
2013-1-13,55.9,43.1,34.6,49.0,41.6,34.0,98,94,77,30.09,29.91,16,2,32,0.00
2013-1-14,51.8,38.0,26.9,51.0,33.9,20.0,98,86,70,30.21,29.80,12,3,27,0.07
2013-1-15,28.8,25.5,22.1,21.0,19.5,18.0,87,78,69,30.29,30.15,6,1,12,0.00
2013-1-16,30.3,25.5,22.2,28.0,23.1,19.0,95,90,80,30.20,29.77,13,1,20,0.28
2013-1-17,29.6,23.7,13.8,24.0,17.3,2.0,87,77,58,30.05,29.78,13,3,29,0.02
2013-1-18,13.8,9.6,3.9,4.0,-2.6,-10.0,69,58,49,30.37,30.00,14,4,38,0.00
2013-1-19,38.6,28.0,13.4,23.0,15.7,4.0,70,61,47,30.27,29.79,12,4,30,0.00
2013-1-20,39.8,29.1,12.3,29.0,18.9,6.0,90,67,50,29.85,29.48,15,6,42,0.07
2013-1-21,16.9,12.5,8.7,11.0,5.3,-1.0,89,74,57,29.99,29.74,13,2,21,0.01
2013-1-22,14.1,6.9,-0.1,10.0,0.4,-10.0,88,75,62,30.02,29.73,12,2,18,0.03
2013-1-23,2.1,-2.6,-6.1,-6.0,-13.2,-16.0,74,61,49,30.11,30.00,12,3,23,0.00
2013-1-24,7.1,-0.5,-7.5,-9.0,-12.4,-15.0,76,58,45,30.25,30.06,32,6,32,0.00
2013-1-25,13.6,5.5,-2.8,3.0,-9.3,-15.0,84,52,31,30.31,30.05,11,2,41,0.01
2013-1-26,11.7,5.9,0.9,2.0,-3.2,-8.0,84,68,42,30.24,30.01,15,4,23,0.00
2013-1-27,18.8,11.4,5.0,0.0,-1.9,-4.0,74,57,41,30.46,30.24,21,4,28,0.00
2013-1-28,19.0,15.1,11.2,17.0,7.6,-4.0,92,74,43,30.44,30.00,8,1,11,0.17
2013-1-29,30.2,25.3,19.5,29.0,23.8,18.0,97,94,88,30.15,30.00,10,2,18,0.06
2013-1-30,52.3,41.0,30.2,51.0,40.4,30.0,98,97,95,30.06,29.33,18,4,42,0.15
2013-1-31,51.2,32.1,17.6,51.0,27.5,11.0,99,83,67,29.47,28.86,18,6,46,0.95
2013-2-1,18.2,14.2,9.2,11.0,6.7,2.0,84,72,63,30.02,29.46,20,5,51,0.01
2013-2-2,17.9,11.8,4.9,9.0,3.3,-3.0,85,69,55,30.18,30.01,10,2,25,0.00
2013-2-3,21.7,14.9,7.4,11.0,7.5,4.0,86,73,55,30.02,29.72,7,1,12,0.00
2013-2-4,16.4,12.8,8.8,10.0,6.0,2.0,84,74,60,29.88,29.70,10,2,25,0.00
2013-2-5,22.5,14.5,4.2,14.0,6.5,1.0,87,71,56,29.98,29.88,5,0,18,0.00
2013-2-6,25.0,18.8,13.0,19.0,10.5,-1.0,93,71,47,30.24,29.87,11,3,23,0.00
2013-2-7,21.0,14.4,5.1,6.0,1.3,-4.0,68,57,46,30.47,30.25,8,1,16,0.00
2013-2-8,18.6,15.6,12.1,16.0,11.1,4.0,92,83,58,30.41,29.77,13,3,22,0.42
2013-2-9,14.9,9.9,5.8,13.0,5.5,-2.0,91,83,68,30.25,29.76,30,9,46,0.25
2013-2-10,35.4,20.2,6.8,7.0,1.6,-3.0,68,47,23,30.46,30.25,19,3,26,0.00
2013-2-11,40.6,28.8,19.2,39.0,21.7,0.0,97,78,35,30.29,29.61,16,4,24,0.23
2013-2-12,29.5,27.6,24.5,26.0,24.0,20.0,90,86,80,29.82,29.58,14,6,33,0.00
2013-2-13,28.1,24.8,21.2,21.0,19.1,16.0,87,79,69,29.81,29.70,9,2,19,0.00
2013-2-14,34.8,26.7,19.7,22.0,18.3,15.0,82,71,55,29.93,29.69,8,1,18,0.00
2013-2-15,40.3,32.8,27.8,27.0,23.9,19.0,91,70,57,29.91,29.85,10,2,24,0.01
2013-2-16,28.1,22.8,16.1,23.0,15.4,5.0,87,73,60,29.91,29.73,12,3,19,0.00
2013-2-17,15.8,9.5,3.0,5.0,-0.5,-5.0,83,64,54,29.73,29.50,31,9,37,0.00
2013-2-18,18.8,10.0,1.8,1.0,-3.3,-6.0,72,56,37,30.16,29.73,20,6,39,0.00
2013-2-19,32.3,26.1,11.8,31.0,15.5,-2.0,96,67,37,30.17,29.55,15,3,19,0.15
2013-2-20,30.8,18.5,14.5,29.0,14.4,10.0,92,84,76,29.76,29.55,14,4,27,0.01
2013-2-21,19.9,15.2,10.4,15.0,9.2,5.0,85,77,67,30.28,29.71,22,7,29,0.00
2013-2-22,32.7,24.7,16.9,19.0,16.9,14.0,88,73,57,30.39,30.25,18,4,27,0.00
2013-2-23,27.3,25.3,23.2,26.0,23.7,19.0,96,93,76,30.24,29.89,10,3,16,0.10
2013-2-24,33.0,28.9,25.2,30.0,27.1,23.0,95,93,88,29.88,29.71,9,1,16,0.16
2013-2-25,30.5,26.3,22.7,28.0,23.1,20.0,92,87,80,30.21,29.88,10,2,20,0.00
2013-2-26,32.2,28.2,23.5,27.0,24.5,21.0,92,86,78,30.29,30.10,10,3,15,0.00
2013-2-27,31.1,28.4,25.8,30.0,27.2,23.0,97,95,88,30.10,29.60,10,3,21,0.83
2013-2-28,34.2,30.4,26.2,34.0,29.6,25.0,98,97,96,29.59,29.52,7,1,14,0.07
2013-3-1,34.5,28.9,24.1,30.0,25.2,21.0,96,86,69,29.67,29.52,15,5,23,0.00
2013-3-2,30.5,25.2,20.1,24.0,21.4,17.0,91,85,76,29.67,29.63,18,5,26,0.00
2013-3-3,28.7,22.1,18.8,22.0,18.1,15.0,89,84,76,29.64,29.59,15,4,22,0.00
2013-3-4,28.1,21.2,16.6,20.0,16.7,14.0,89,83,71,29.80,29.62,18,5,29,0.00
2013-3-5,35.3,27.6,21.3,26.0,22.0,17.0,92,79,67,30.06,29.80,12,4,21,0.00
2013-3-6,29.1,27.3,24.4,27.0,24.9,22.0,95,90,83,30.11,30.01,19,6,31,0.03
2013-3-7,29.6,25.6,22.9,26.0,22.8,20.0,94,89,78,30.09,30.03,20,7,26,0.06
2013-3-8,32.6,28.1,23.3,30.0,24.0,20.0,96,85,68,30.22,29.98,22,8,26,0.29
2013-3-9,48.9,37.5,28.7,22.0,17.0,11.0,69,46,25,30.29,30.19,12,4,21,0.00
2013-3-10,47.0,36.2,24.8,28.0,21.7,15.0,74,57,40,30.32,30.19,13,4,21,0.00
2013-3-11,50.5,38.2,30.1,35.0,27.3,20.0,91,69,32,30.20,30.02,18,3,29,0.00
2013-3-12,44.5,40.2,32.5,44.0,39.5,31.0,98,97,91,30.02,29.66,13,5,22,1.16
2013-3-13,36.0,31.5,26.5,31.0,23.3,16.0,94,73,51,29.75,29.70,12,3,26,0.00
2013-3-14,26.2,17.2,12.5,21.0,11.0,5.0,88,77,65,29.82,29.68,16,4,28,0.01
2013-3-15,27.0,20.1,11.6,23.0,11.0,2.0,87,69,38,29.83,29.62,22,5,33,0.04
2013-3-16,29.0,21.3,14.5,19.0,10.7,7.0,85,65,42,29.85,29.69,10,2,20,0.00
2013-3-17,24.9,19.0,11.5,14.0,6.3,1.0,83,60,40,30.28,29.86,16,4,37,0.00
2013-3-18,29.2,18.2,4.5,18.0,1.6,-6.0,91,51,31,30.41,30.17,14,3,19,0.06
2013-3-19,26.5,23.4,19.5,25.0,21.8,17.0,94,93,91,30.14,29.69,8,2,18,0.82
2013-3-20,23.6,19.8,16.6,21.0,17.1,15.0,93,89,81,29.77,29.66,10,4,27,0.03
2013-3-21,29.2,21.4,14.9,18.0,13.1,11.0,94,72,49,29.77,29.60,7,2,22,0.00
2013-3-22,28.5,20.8,15.4,20.0,14.8,9.0,87,78,64,29.74,29.61,10,3,25,0.01
2013-3-23,31.9,25.1,20.3,19.0,17.1,15.0,90,73,56,29.80,29.67,18,5,35,0.02
2013-3-24,35.1,27.7,23.2,22.0,19.4,18.0,80,71,59,29.83,29.74,15,3,21,0.00
2013-3-25,33.0,28.9,23.3,24.0,21.4,18.0,81,74,67,29.76,29.51,9,3,15,0.00
2013-3-26,37.0,30.4,26.2,27.0,21.7,18.0,92,71,51,29.79,29.56,13,4,21,0.00
2013-3-27,42.9,33.5,28.2,30.0,23.8,18.0,88,68,49,29.87,29.77,9,3,21,0.03
2013-3-28,40.9,34.4,29.5,30.0,28.1,26.0,90,78,63,30.02,29.86,12,3,19,0.01
2013-3-29,42.0,35.7,31.1,32.0,29.1,26.0,86,77,57,30.04,29.98,11,3,19,0.03
2013-3-30,45.6,37.1,29.8,27.0,22.1,16.0,84,58,34,30.07,30.01,12,3,19,0.00
2013-3-31,47.0,36.4,26.5,33.0,22.8,15.0,96,60,39,30.07,29.68,21,4,34,0.23
2013-4-1,46.5,32.8,21.8,37.0,26.8,10.0,96,80,51,29.74,29.50,16,3,28,0.22
2013-4-2,25.0,21.2,17.7,16.0,11.7,9.0,77,67,56,29.91,29.74,16,5,33,0.00
2013-4-3,32.6,23.7,17.5,14.0,11.5,8.0,76,61,37,30.14,29.88,14,5,31,0.00
2013-4-4,43.4,32.2,19.1,20.0,16.0,13.0,80,54,35,30.26,29.95,19,4,31,0.00
2013-4-5,44.6,37.0,28.1,25.0,20.1,16.0,70,52,35,29.95,29.67,11,3,25,0.00
2013-4-6,36.6,27.0,18.7,17.0,8.7,5.0,65,48,29,30.29,29.85,18,4,26,0.00
2013-4-7,47.6,36.2,25.5,37.0,23.2,8.0,88,61,40,30.27,29.92,15,5,31,0.01
2013-4-8,56.9,44.6,35.9,37.0,31.9,27.0,84,64,34,30.04,29.93,13,2,24,0.00
2013-4-9,52.8,45.8,39.8,46.0,39.3,33.0,95,79,60,29.98,29.80,18,2,25,0.24
2013-4-10,51.5,44.4,38.8,46.0,41.9,37.0,97,91,74,29.94,29.81,8,1,10,1.08
2013-4-11,40.1,34.6,29.2,39.0,31.3,25.0,96,87,73,30.10,29.80,9,2,13,0.05
2013-4-12,29.6,27.6,25.5,27.0,26.1,24.0,96,93,83,30.10,29.82,8,1,13,0.73
2013-4-13,42.7,34.5,27.9,35.0,31.0,27.0,97,87,71,29.91,29.79,7,0,12,0.05
2013-4-14,37.5,33.8,29.9,31.0,27.1,23.0,92,77,64,30.20,29.89,9,2,23,0.04
2013-4-15,50.5,39.1,27.2,33.0,27.9,22.0,81,66,49,30.34,30.19,10,2,15,0.00
2013-4-16,55.4,45.2,35.3,50.0,39.4,28.0,96,81,62,30.30,30.01,19,5,46,0.36
2013-4-17,52.0,44.2,36.7,41.0,32.8,26.0,92,67,42,30.31,30.04,9,2,21,0.01
2013-4-18,53.3,43.9,35.8,42.0,30.4,24.0,90,60,47,30.35,30.05,25,5,33,0.00
2013-4-19,62.1,53.6,42.8,57.0,51.2,41.0,98,92,74,30.04,29.52,14,4,35,0.76
2013-4-20,44.0,37.3,27.5,42.0,29.6,17.0,93,75,54,30.19,29.54,15,4,26,0.15
2013-4-21,42.5,31.9,22.6,19.0,16.0,11.0,74,54,30,30.64,30.19,15,4,25,0.00
2013-4-22,47.8,36.6,29.1,26.0,19.6,13.0,82,51,36,30.70,30.53,13,4,23,0.00
2013-4-23,36.2,31.5,27.3,35.0,28.9,23.0,95,89,84,30.53,30.17,7,1,11,0.00
2013-4-24,69.2,53.1,34.5,49.0,39.7,27.0,97,66,25,30.15,29.67,14,2,26,0.00
2013-4-25,54.7,41.7,33.4,49.0,29.9,22.0,92,65,40,30.24,29.67,14,4,31,0.11
2013-4-26,52.9,43.9,35.9,32.0,26.1,21.0,64,50,39,30.38,30.24,18,2,19,0.00
2013-4-27,59.5,47.7,36.7,34.0,29.1,25.0,77,51,29,30.38,30.24,9,2,14,0.00
2013-4-28,64.1,52.4,39.0,38.0,32.4,25.0,64,48,34,30.27,30.11,12,3,21,0.00
2013-4-29,59.0,49.0,42.1,41.0,34.6,26.0,66,58,45,30.19,30.13,14,4,26,0.00
2013-4-30,64.7,53.3,43.7,39.0,33.5,26.0,67,48,37,30.27,30.18,13,2,15,0.00
2013-5-1,67.3,55.7,41.6,36.0,30.7,26.0,60,41,22,30.40,30.27,9,2,15,0.00
2013-5-2,73.8,59.0,46.9,41.0,36.1,26.0,67,44,28,30.38,30.25,11,2,15,0.00
2013-5-3,61.0,49.4,37.2,41.0,34.9,26.0,81,59,40,30.42,30.31,13,3,16,0.00
2013-5-4,65.9,54.6,43.4,43.0,37.1,24.0,84,55,31,30.34,30.17,11,2,19,0.00
2013-5-5,65.2,52.6,37.9,34.0,28.9,22.0,64,42,21,30.22,30.14,10,2,19,0.00
2013-5-6,68.5,55.1,37.6,41.0,32.4,24.0,73,46,23,30.18,30.06,9,2,15,0.00
2013-5-7,73.2,60.6,45.9,50.0,42.9,36.0,87,56,28,30.09,30.00,10,2,20,0.00
2013-5-8,63.3,56.2,49.5,56.0,53.4,48.0,98,90,72,30.10,29.97,11,3,21,0.96
2013-5-9,61.8,54.5,49.5,55.0,51.6,49.0,98,90,67,29.97,29.82,9,1,13,0.28
2013-5-10,69.4,60.9,50.5,57.0,51.0,48.0,95,71,50,29.91,29.80,9,2,16,0.00
2013-5-11,60.1,57.2,52.1,59.0,54.4,49.0,96,90,76,29.79,29.60,10,3,25,0.31
2013-5-12,56.1,47.4,36.9,49.0,37.8,25.0,93,71,43,29.76,29.55,13,2,22,0.00
2013-5-13,42.2,36.4,32.8,29.0,26.4,24.0,78,68,53,30.04,29.75,16,4,27,0.00
2013-5-14,48.1,40.2,32.9,30.0,26.7,25.0,75,60,44,30.04,29.98,13,2,16,0.00
2013-5-15,54.4,42.8,30.3,48.0,35.2,25.0,97,76,44,30.02,29.63,22,4,28,0.14
2013-5-16,68.1,58.5,48.9,47.0,39.0,31.0,86,51,31,29.76,29.63,18,4,46,0.00
2013-5-17,59.6,50.1,40.7,40.0,36.9,34.0,84,62,41,30.19,29.77,12,4,22,0.00
2013-5-18,66.5,54.9,42.5,44.0,38.1,33.0,78,55,35,30.25,30.17,11,1,16,0.00
2013-5-19,59.0,50.8,44.5,51.0,47.0,41.0,97,87,72,30.25,30.12,11,3,22,0.07
2013-5-20,70.3,60.6,49.6,62.0,56.7,49.0,98,87,73,30.11,29.92,11,2,21,0.00
2013-5-21,79.4,66.1,50.2,65.0,58.9,49.0,98,80,55,29.93,29.75,9,2,25,1.27
2013-5-22,74.1,64.8,48.7,67.0,61.9,48.0,98,90,71,29.83,29.76,10,2,14,1.27
2013-5-23,72.6,63.9,60.0,64.0,61.6,59.0,98,92,74,29.77,29.65,12,3,19,0.09
2013-5-24,60.3,49.5,38.2,60.0,47.8,37.0,98,94,87,29.83,29.57,15,5,30,0.74
2013-5-25,39.9,37.1,33.6,38.0,35.5,32.0,95,94,90,29.83,29.77,23,7,39,0.51
2013-5-26,46.7,39.0,33.3,40.0,36.3,32.0,95,90,76,30.07,29.75,22,5,35,0.12
2013-5-27,62.3,50.7,38.6,42.0,36.8,33.0,87,62,41,30.14,30.07,12,2,24,0.00
2013-5-28,65.9,55.1,42.2,50.0,41.1,34.0,86,61,42,30.18,30.08,10,2,18,0.00
2013-5-29,69.6,58.6,51.4,64.0,56.8,50.0,98,93,78,30.07,29.91,10,2,27,0.62
2013-5-30,77.9,70.1,61.2,66.0,62.7,59.0,93,78,62,30.04,29.97,11,2,23,0.00
2013-5-31,83.3,74.8,59.7,66.0,62.0,57.0,92,66,44,30.03,29.88,10,1,19,0.00
2013-6-1,83.6,75.9,69.2,66.0,62.7,60.0,79,64,49,29.89,29.76,11,2,20,0.00
2013-6-2,81.3,71.0,62.4,69.0,64.7,60.0,93,81,58,29.77,29.61,12,3,45,0.30
2013-6-3,63.5,58.2,46.7,59.0,51.5,34.0,94,79,60,29.80,29.69,13,2,21,0.00
2013-6-4,63.0,52.4,42.3,47.0,40.9,34.0,82,66,49,30.07,29.78,15,3,22,0.00
2013-6-5,65.4,56.3,45.8,47.0,42.3,38.0,85,62,41,30.14,30.05,7,1,13,0.00
2013-6-6,63.3,55.8,47.1,51.0,44.3,35.0,95,67,52,30.11,30.01,10,3,24,0.17
2013-6-7,49.1,47.4,45.4,48.0,46.3,44.0,97,96,94,30.01,29.82,11,1,11,1.42
2013-6-8,64.2,54.9,46.7,58.0,52.4,46.0,97,91,77,29.98,29.68,11,2,20,0.35
2013-6-9,68.4,59.7,52.2,56.0,53.0,50.0,93,79,61,30.13,29.98,9,1,15,0.00
2013-6-10,63.7,57.2,52.3,56.0,52.9,47.0,97,86,66,30.14,29.91,10,2,18,0.66
2013-6-11,56.8,53.3,50.9,56.0,52.3,50.0,98,96,94,29.90,29.52,9,1,26,1.52
2013-6-12,61.2,53.8,49.6,53.0,50.3,47.0,96,88,69,29.81,29.54,23,4,26,0.05
2013-6-13,54.9,49.7,46.5,51.0,48.0,45.0,97,94,84,29.79,29.66,8,1,14,0.91
2013-6-14,67.1,56.2,46.4,56.0,49.8,45.0,96,80,56,29.80,29.64,16,2,20,0.00
2013-6-15,67.4,59.6,51.6,51.0,46.0,42.0,85,62,44,29.90,29.80,7,1,21,0.00
2013-6-16,65.6,58.1,51.5,58.0,50.8,42.0,94,77,63,29.89,29.66,15,2,25,0.13
2013-6-17,72.4,63.0,56.9,62.0,57.5,53.0,94,83,58,29.84,29.74,11,1,23,0.13
2013-6-18,65.9,56.5,49.0,59.0,53.2,46.0,97,89,75,29.89,29.81,6,0,10,0.00
2013-6-19,63.8,55.2,45.3,48.0,43.5,36.0,91,66,46,30.13,29.89,8,2,15,0.00
2013-6-20,69.8,58.6,44.3,52.0,45.0,36.0,85,63,33,30.21,30.13,9,1,16,0.00
2013-6-21,75.5,65.7,54.0,56.0,51.6,44.0,87,63,36,30.20,30.15,7,1,14,0.00
2013-6-22,76.7,68.3,58.2,63.0,59.1,49.0,91,74,55,30.16,30.03,8,1,25,0.00
2013-6-23,82.9,74.1,65.6,70.0,65.0,60.0,84,73,57,30.07,29.90,10,2,20,0.00
2013-6-24,81.3,71.2,63.1,70.0,64.9,60.0,93,81,63,29.94,29.84,11,2,19,0.21
2013-6-25,81.4,70.8,65.2,69.0,64.2,59.0,94,80,59,29.88,29.68,10,2,19,0.12
2013-6-26,71.5,66.5,61.3,66.0,63.6,60.0,96,90,82,29.77,29.66,9,1,19,0.05
2013-6-27,75.8,67.8,58.4,68.0,63.9,58.0,98,88,72,29.77,29.61,14,2,18,0.05
2013-6-28,75.3,64.8,58.1,68.0,62.1,58.0,98,91,72,29.61,29.39,8,2,18,2.30
2013-6-29,76.0,67.8,60.9,66.0,61.9,59.0,98,83,60,29.61,29.41,11,2,25,0.00
2013-6-30,77.5,68.5,62.6,68.0,63.6,60.0,97,85,67,29.85,29.62,7,1,14,0.06
2013-7-1,70.8,66.4,62.7,68.0,65.4,62.0,98,96,89,29.98,29.86,6,0,9,0.46
2013-7-2,78.0,70.0,66.1,72.0,68.0,65.0,98,93,76,30.07,29.96,9,2,20,0.10
2013-7-3,78.7,72.1,67.5,70.0,67.6,66.0,96,86,72,30.11,30.05,11,2,20,0.02
2013-7-4,83.9,75.5,68.5,72.0,68.8,66.0,93,80,62,30.12,30.02,13,2,21,0.00
2013-7-5,84.1,75.0,67.2,73.0,69.6,66.0,97,84,65,30.07,29.97,6,1,21,1.30
2013-7-6,77.7,72.2,69.0,70.0,66.0,59.0,94,81,62,30.01,29.95,10,2,20,0.00
2013-7-7,83.3,73.0,67.1,72.0,66.5,59.0,95,80,62,29.98,29.85,6,0,16,0.03
2013-7-8,77.3,70.5,66.7,69.0,66.4,65.0,96,87,70,29.96,29.84,5,-13,13,0.00
2013-7-9,74.8,68.4,65.7,71.0,66.6,64.0,98,94,83,30.00,29.95,6,1,22,1.68
2013-7-10,77.4,69.3,65.9,73.0,67.5,65.0,99,94,82,29.96,29.72,10,2,25,0.51
2013-7-11,76.0,69.6,61.5,68.0,63.6,55.0,91,81,63,29.91,29.68,10,2,24,0.00
2013-7-12,73.6,65.0,59.7,63.0,57.8,55.0,90,78,64,30.13,29.91,8,2,11,0.00
2013-7-13,66.7,63.6,57.6,66.0,59.6,54.0,98,87,71,30.25,30.14,4,0,9,0.03
2013-7-14,79.3,72.3,65.1,70.0,67.3,64.0,98,85,67,30.27,30.16,8,0,11,0.00
2013-7-15,82.6,74.7,66.7,70.0,67.1,62.0,95,78,58,30.16,30.07,9,1,14,0.00
2013-7-16,82.0,74.3,66.4,68.0,64.4,61.0,87,72,54,30.12,30.08,12,2,18,0.00
2013-7-17,84.1,76.2,64.8,71.0,67.4,63.0,94,75,58,30.12,29.93,10,1,16,0.00
2013-7-18,84.5,77.8,70.3,72.0,69.5,66.0,92,76,63,29.95,29.86,9,1,19,0.00
2013-7-19,85.2,76.9,66.8,74.0,67.1,-99.9,91,74,62,29.86,29.64,18,-9,28,0.08
2013-7-20,76.6,69.9,61.3,69.0,62.7,59.0,93,78,65,29.76,29.63,15,2,27,0.02
2013-7-21,76.4,67.0,58.0,63.0,59.5,56.0,94,78,59,29.93,29.76,9,1,15,0.00
2013-7-22,76.3,66.8,58.0,67.0,62.3,56.0,97,85,69,29.94,29.79,11,2,19,0.05
2013-7-23,74.2,66.6,62.2,70.0,64.2,61.0,98,92,76,29.78,29.50,6,1,14,2.55
2013-7-24,71.3,64.0,52.5,63.0,57.3,-99.9,96,81,62,29.89,29.53,12,2,18,0.00
2013-7-25,65.8,52.9,46.0,57.0,40.7,-99.9,91,75,68,30.05,29.90,6,1,15,0.00
2013-7-26,68.3,60.2,54.8,59.0,54.4,50.0,92,81,59,30.03,29.94,9,1,13,0.00
2013-7-27,75.5,64.7,52.5,62.0,56.7,49.0,95,77,48,30.00,29.91,10,1,13,0.00
2013-7-28,72.1,63.6,57.0,66.0,61.2,56.0,97,92,73,29.93,29.89,9,1,13,0.17
2013-7-29,74.1,66.0,59.4,65.0,60.4,52.0,98,83,60,30.01,29.90,9,1,16,0.03
2013-7-30,70.4,62.5,53.1,58.0,54.5,50.0,90,76,59,30.06,29.99,12,1,18,0.00
2013-7-31,74.2,63.3,53.2,60.0,55.5,52.0,94,77,54,30.09,29.98,6,0,10,0.00
2013-8-1,68.8,59.9,54.0,62.0,57.2,52.0,97,91,78,29.98,29.79,10,2,20,0.19
2013-8-2,71.8,64.4,58.3,61.0,57.3,54.0,98,79,57,29.80,29.73,7,1,23,0.00
2013-8-3,59.5,56.8,54.5,55.0,53.6,52.0,94,89,85,29.80,29.73,7,1,12,0.00
2013-12-30,23.7,15.3,7.0,20.4,9.8,1.9,87,79,76,30.06,29.78,6,3,14,0.01
2013-12-31,14.8,11.6,8.6,11.1,6.0,1.9,85,78,74,30.15,30.06,7,5,20,0.00
2014-1-2,5.5,3.3,0.5,1.7,-0.6,-3.2,84,84,82,30.05,29.94,5,3,8,0.35